Погода в Мырыле

Россия / Республика Саха (Якутия)     61°50′05″N   133°38′35″E
темп.,
°C
ветер,
м/с
пор.,
м/с
влажн.,
%
обл.,
%
осадки,
мм/ч
давл.,
гПа
погр.,
м
23 мая, пн
пн2300:00+2юв26915 0.0 1010121
03:00+1юв11945 0.0 101016
06:00+5ююв25685 0.0 1009330
09:00+10юв23495 0.0 10091325
12:00+13ююв213698 0.0 10072195
15:00+13ююв113597 0.0 10072157
18:00+13ю113737 0.0 10071950
21:00+7ююв226291 0.0 100917
24 мая, вт
вт2400:00+5ю2672100 0.0 1010105
03:00+3ю248057 0.0 101165
06:00+7ю237292 0.0 1011206
09:00+9ююз477674 0.9 1010903
12:00+11ю566143 0.8 10091026
15:00+13ююв5850100 0.8 10051716
18:00+10зюз3680100 0.7 1003481
21:00+7ююз2598100 9.7 1003202
25 мая, ср
ср2500:00+6з4109560 0.8 1004594
03:00+4зюз3791100 0.9 1005620
06:00+5юз2587100 0.0 1004620
09:00+6ююз3583100 0.3 1003822
12:00+8ююз2372100 0.3 10001125
15:00+6ссз2296100 4.3 1000588
18:00+4сз3698100 6.1 1001743
21:00+3зсз41098100 9.0 1002711
26 мая, чт
чт2600:00+2зсз41092100 0.8 1002690
03:00+2з499280 0.8 1003688
06:00+2з379391 0.1 1003719
09:00+2зюз3692100 0.6 1004670
12:00+5зюз3479100 0.6 10041028
15:00+5юз338189 1.1 1004820
18:00+5зюз217473 0.2 1005759
21:00+1зюз119431 0.2 100610
27 мая, пт
пт2700:00−1юз11965 0.0 100610
03:00−1з00975 0.0 100710
06:00+3с118210 0.0 1007271
09:00+9зсз115960 0.0 10071191
12:00+10ссв2154100 0.1 10071555
15:00+9в1158100 0.1 1008920
18:00+9с1166100 0.0 1009469
21:00+6всв1177100 0.1 101010